Theta_e
332 333 333 333 332 333 333 333 332 331 332 332 332 330 328 328 329 331 332 332 333 332 332 332 332 331 332 333 333 333 333 333 333 334 334 334 333 332 332 333 333 332 331 329 326 324 324 323 322 321 321 321 320 321 320 320 321 317 313 314 313 312 313 313 314 314 314 314 314 315 316 318 318 318 318 318 319 319 319 319 319 318 317 316 315
332 332 332 333 333 333 334 333 333 332 332 332 332 333 332 331 332 333 333 333 333 333 333 333 332 332 332 333 334 333 333 333 333 333 333 333 333 332 332 333 333 333 332 331 329 326 325 324 324 323 322 322 322 322 321 321 321 318 317 317 316 316 316 317 317 318 318 319 320 320 321 322 322 323 323 323 323 324 323 323 322 322 322 322 321
330 330 331 333 333 333 333 333 333 333 333 333 332 333 333 333 334 333 333 333 333 333 333 333 333 333 333 333 333 333 333 333 333 333 332 332 332 332 332 333 333 333 332 331 330 329 328 327 326 326 326 325 325 325 324 323 323 322 321 320 321 321 320 320 321 321 321 322 323 323 324 324 324 324 325 325 325 325 325 324 324 324 324 324 324
329 329 329 332 333 333 334 333 332 332 333 333 332 333 333 333 333 333 333 333 333 333 334 334 333 333 333 333 333 333 333 333 333 332 332 332 332 333 333 333 334 334 333 332 332 332 332 330 328 327 328 328 328 327 327 327 326 326 325 325 325 324 324 324 324 324 325 325 326 326 326 327 327 327 327 327 327 327 327 327 326 325 325 324 324
325 327 328 330 333 334 334 333 332 331 332 332 332 333 332 332 333 333 333 333 332 333 333 333 333 333 334 333 333 333 333 333 333 332 332 332 332 333 333 334 334 334 334 333 332 333 334 333 331 329 329 329 329 329 329 328 328 327 327 326 326 326 326 327 327 327 327 327 328 328 328 328 329 329 329 329 329 329 329 329 328 327 327 326 325
318 319 321 325 331 334 333 333 332 330 330 332 332 332 333 332 333 333 333 332 333 333 333 333 333 332 332 332 333 333 332 333 333 332 332 332 332 332 332 333 333 333 333 333 332 333 334 335 334 332 331 330 330 330 330 330 330 329 329 328 327 327 327 328 328 328 328 329 329 329 329 329 329 329 329 329 330 330 330 330 330 329 329 328 327
318 317 316 315 320 328 333 332 331 330 330 331 331 331 332 332 332 333 332 332 332 333 333 333 333 332 332 331 332 332 333 333 333 333 334 333 333 332 332 332 333 333 333 333 333 333 333 334 334 333 332 331 331 331 331 331 330 330 330 330 330 329 329 329 329 329 329 329 329 329 329 330 330 329 330 330 330 330 330 330 330 330 330 330 329
321 318 315 312 309 317 328 332 330 329 330 331 331 330 330 330 330 330 330 331 330 332 332 333 333 333 332 331 332 332 332 333 333 334 334 334 334 333 333 333 333 333 333 332 332 332 332 332 333 333 333 331 330 330 330 330 329 328 329 329 330 330 330 329 329 329 329 329 329 330 330 330 330 330 330 331 331 330 331 330 330 330 330 330 330
318 315 313 313 309 310 320 329 330 329 330 330 331 330 329 327 327 327 327 328 329 329 331 332 332 332 332 331 332 332 332 332 333 333 333 333 334 334 334 333 333 333 332 332 331 332 332 332 331 332 332 331 331 331 330 329 329 328 328 327 328 329 329 329 329 330 330 330 330 330 330 330 331 331 331 331 331 331 330 330 330 330 330 330 330
317 317 317 317 313 309 314 323 328 329 329 330 330 330 328 326 327 326 325 326 327 328 328 330 331 332 332 332 332 332 332 332 332 332 333 333 333 334 333 333 332 333 332 332 332 332 332 331 331 330 331 331 331 330 329 328 329 328 328 327 328 328 328 329 330 331 331 331 331 331 331 331 331 331 331 331 330 330 330 329 329 329 329 329 329
321 322 323 321 316 311 311 314 321 326 328 328 328 328 327 326 327 326 326 327 327 327 326 327 328 329 330 331 331 331 331 331 331 331 332 333 333 333 332 333 333 333 333 333 332 332 332 331 331 330 330 331 331 330 329 329 328 328 328 329 329 328 328 329 331 332 331 330 330 330 330 330 331 330 330 329 329 329 329 329 328 328 328 328 329
323 324 325 323 321 318 315 313 314 316 318 320 322 324 324 324 327 327 326 326 326 325 324 324 325 325 326 327 327 328 329 329 329 330 331 332 333 332 332 332 333 332 332 332 332 331 332 331 331 330 331 331 331 330 330 329 328 328 329 330 331 330 329 330 331 332 331 330 329 329 330 330 330 330 329 329 328 328 329 329 329 328 328 328 329
324 324 325 325 324 321 319 319 318 317 317 317 320 322 323 324 325 326 325 325 324 323 323 323 321 320 322 323 324 326 328 329 329 329 331 332 332 331 331 331 331 331 331 331 331 331 332 331 330 330 330 330 330 330 330 329 327 326 328 329 330 331 331 330 330 331 331 330 329 329 329 330 330 330 329 328 328 329 329 329 328 328 328 328 329
324 324 324 325 324 321 320 321 321 322 322 323 324 325 325 325 326 326 326 326 324 322 322 322 321 320 320 321 323 326 328 329 329 329 329 330 330 330 330 330 330 331 331 331 331 331 331 331 330 329 329 330 330 329 329 328 326 326 327 327 329 330 331 330 330 330 331 331 330 330 330 330 330 329 328 328 328 328 328 327 326 327 327 328 328
323 323 323 323 322 321 321 321 321 321 322 324 326 327 328 328 328 328 328 327 324 321 321 321 322 321 320 321 323 325 328 329 328 328 328 329 329 329 329 330 330 330 330 330 330 329 329 329 328 327 328 329 329 328 327 326 326 327 326 326 328 330 330 331 331 330 331 331 330 330 331 331 330 328 327 327 327 327 326 326 327 327 328 328 329
322 322 322 321 321 321 320 321 321 321 321 321 323 324 325 326 326 327 326 325 323 322 322 321 322 322 322 323 323 323 324 327 328 328 328 328 328 328 328 329 329 329 329 329 329 328 328 327 327 327 327 327 327 326 326 325 326 327 326 326 327 329 329 329 330 330 330 331 331 331 331 330 329 328 328 328 327 327 328 328 329 329 329 329 330
322 322 322 321 320 320 320 320 320 320 320 321 321 321 321 321 321 321 321 320 320 322 323 323 323 323 323 324 324 324 322 324 327 328 328 328 328 328 328 328 328 328 328 328 328 327 327 326 326 326 326 326 326 326 325 326 326 327 327 327 327 328 328 328 329 329 330 330 330 330 329 329 329 329 329 329 329 329 329 329 330 330 329 329 329
322 322 322 321 321 320 320 320 319 319 319 320 321 322 321 320 319 318 318 317 318 321 323 324 324 325 325 325 325 325 324 324 327 328 328 328 327 327 328 328 328 327 327 327 327 327 327 326 326 326 326 326 325 325 325 326 327 327 328 329 329 329 329 329 330 330 330 330 330 329 328 328 328 329 329 328 328 329 329 329 330 330 329 328 328
322 322 321 321 320 319 319 319 319 318 319 319 320 321 322 322 321 321 320 319 318 320 321 322 324 325 325 325 326 326 326 325 326 328 328 328 327 327 327 327 327 327 327 327 327 327 327 327 326 326 326 326 325 325 325 325 326 328 329 329 329 329 329 330 330 329 328 328 328 328 328 328 328 328 329 328 328 328 329 329 329 329 328 327 327
323 322 322 321 319 318 318 318 318 318 319 320 320 320 321 321 322 321 321 320 320 321 321 322 324 325 325 325 325 325 325 325 325 326 328 328 327 327 327 327 327 327 327 327 327 326 326 326 326 326 326 326 325 325 325 325 326 327 329 329 328 328 328 328 327 327 327 328 328 328 329 328 327 328 329 328 328 328 328 328 328 327 327 326 326
323 322 322 321 319 317 317 317 318 319 319 320 320 321 321 321 322 322 322 322 322 322 322 322 323 324 325 325 325 325 325 325 325 326 327 327 327 327 327 327 326 327 326 326 325 325 326 326 325 326 326 325 325 325 326 326 326 327 328 328 327 327 327 327 327 326 327 328 328 327 328 328 327 328 328 328 328 327 327 326 326 326 325 325 325
323 322 322 321 319 317 317 318 318 320 320 321 321 321 322 322 322 322 322 322 322 323 323 323 323 324 324 325 324 324 324 324 325 325 326 327 326 326 326 326 326 326 325 325 324 324 325 324 323 324 325 325 325 325 325 326 326 326 326 327 326 326 327 328 327 327 327 328 327 327 327 327 326 326 327 326 326 325 324 324 324 324 324 324 324
322 322 321 320 318 316 317 318 319 321 321 322 321 321 321 322 323 323 323 323 323 323 324 324 324 324 324 324 324 323 323 324 325 325 325 326 326 326 326 325 325 325 325 325 324 323 323 322 322 322 323 323 323 324 324 324 324 324 324 325 326 326 326 326 327 327 326 326 326 325 325 325 325 325 325 325 324 323 323 322 322 322 323 323 323
321 321 320 318 316 316 317 318 319 320 321 321 321 320 320 321 322 323 323 323 324 324 324 324 324 324 324 324 324 324 324 324 325 325 325 325 325 325 325 325 325 324 324 324 323 322 322 321 320 320 321 321 321 321 321 321 321 321 322 323 324 324 325 325 325 325 325 324 324 324 323 322 322 322 323 323 322 321 321 321 321 321 322 323 323
320 319 318 316 316 317 317 318 320 320 320 320 320 319 319 319 319 321 322 323 323 324 324 324 324 324 324 323 323 323 324 325 325 324 325 325 325 325 325 325 324 323 323 323 322 321 321 320 319 318 319 319 319 319 319 319 318 318 318 320 321 321 322 322 321 321 320 320 321 320 319 318 317 317 318 318 318 319 319 319 319 320 321 322 323
319 318 317 315 316 317 318 320 320 320 320 320 320 319 318 318 318 319 320 321 321 322 323 323 324 323 323 322 321 321 322 323 324 324 324 325 325 325 325 324 324 323 322 322 321 320 320 319 318 317 317 317 317 317 317 317 316 315 314 315 317 316 316 316 315 314 314 314 315 314 313 312 312 312 311 312 313 316 316 315 316 318 320 321 322
317 316 316 316 316 317 319 321 320 320 320 320 320 320 319 318 317 318 318 318 318 319 321 322 323 323 322 321 321 320 320 321 322 323 324 324 325 324 324 324 323 322 321 320 319 319 319 318 317 317 316 315 315 315 315 315 314 312 311 312 311 310 308 308 308 308 308 308 308 307 307 307 307 307 307 306 308 310 311 310 310 312 313 315 316
314 316 316 315 316 316 319 321 320 320 321 320 320 319 319 318 317 317 317 316 316 316 319 321 322 322 321 321 320 319 319 321 322 323 323 324 324 324 324 323 322 320 318 317 317 318 318 317 317 316 315 314 313 314 314 312 310 310 309 308 306 304 303 304 304 304 304 304 304 303 303 302 303 303 303 303 303 304 305 305 305 305 306 307 309
314 317 316 316 316 315 318 320 320 320 320 319 319 319 318 318 317 317 317 317 317 315 316 319 321 321 320 320 320 319 318 320 322 322 322 322 322 323 323 324 323 321 319 317 315 316 317 316 316 316 315 313 313 313 311 307 306 307 307 304 302 301 301 301 302 302 302 302 302 301 300 299 299 300 300 300 301 301 302 302 302 303 303 304 305
316 318 316 316 317 315 318 320 319 319 319 318 318 317 317 316 316 316 315 315 315 315 315 317 318 319 319 319 319 318 317 319 320 321 321 321 321 321 322 323 324 323 321 317 314 313 314 314 314 314 314 314 314 311 306 302 302 303 301 300 300 300 299 299 300 301 301 301 301 300 299 297 297 297 297 298 298 299 299 300 301 301 302 302 303
317 318 316 316 317 316 317 319 318 318 318 318 317 317 316 316 315 315 314 313 313 314 315 315 315 316 316 316 316 316 316 316 318 320 320 319 319 320 319 321 323 323 321 318 312 310 311 311 311 311 312 313 312 308 302 301 301 300 298 298 298 299 299 298 299 301 301 301 301 300 298 296 295 295 296 296 296 297 297 298 299 299 300 301 302
317 317 316 317 316 316 316 316 317 317 317 317 316 316 315 314 313 313 312 311 312 313 313 314 314 312 312 313 313 313 314 314 316 319 319 318 318 318 317 318 321 322 320 317 312 309 309 308 308 309 310 311 309 306 305 305 304 303 301 299 297 297 298 298 299 300 301 301 301 300 298 296 295 294 295 295 295 296 296 296 297 297 298 299 300
316 317 316 316 316 316 315 315 316 316 316 316 315 315 314 312 311 311 311 310 310 310 310 310 310 309 309 310 311 312 312 312 313 315 316 315 315 314 315 318 320 320 318 315 311 309 308 308 308 308 309 308 307 307 307 307 307 305 304 302 299 297 297 298 299 300 301 301 300 300 298 297 295 294 294 295 295 295 295 296 296 296 297 298 299
315 316 315 315 315 315 315 315 316 316 315 315 314 314 312 309 308 309 308 308 308 308 308 307 307 307 307 308 309 310 311 310 310 309 309 309 310 312 316 319 319 316 315 314 311 308 307 307 308 308 308 308 307 306 307 307 307 306 305 304 302 299 298 299 299 299 301 301 301 301 300 298 297 295 294 294 295 295 295 295 295 296 296 297 299
314 315 314 313 314 315 314 315 315 314 314 313 312 311 310 307 306 306 305 305 305 305 305 305 305 305 305 306 307 309 310 309 308 306 306 307 309 314 317 318 316 314 312 311 310 308 306 306 306 307 308 308 307 306 307 307 306 305 304 304 303 301 300 299 298 300 302 301 301 301 301 299 298 296 294 293 294 294 295 295 295 295 296 297 299
314 314 312 311 313 314 314 314 313 314 313 310 307 307 306 304 303 303 302 302 301 301 301 301 302 302 303 303 304 307 309 308 306 305 304 306 310 314 315 314 313 311 309 309 308 306 305 304 305 306 306 307 307 307 306 306 306 305 304 303 303 302 300 298 298 300 301 301 301 301 301 300 299 296 293 292 293 294 294 294 295 295 297 298 300
313 313 311 311 314 314 313 313 313 312 309 305 302 302 301 300 300 300 301 300 299 299 299 299 300 300 300 301 301 304 307 307 306 305 304 304 308 311 311 310 309 308 307 306 306 305 304 303 303 304 305 306 307 307 305 305 306 305 303 303 303 302 300 298 298 299 301 301 301 302 301 301 299 296 293 292 292 293 293 294 294 295 297 298 300
311 311 311 312 313 313 313 312 311 309 305 303 302 300 299 298 299 299 300 299 298 299 298 298 298 298 299 299 299 301 304 305 305 305 304 303 304 306 308 307 307 306 305 304 303 303 302 301 301 303 304 305 306 306 306 305 305 304 303 302 303 301 300 299 298 299 301 301 301 302 301 301 300 297 293 292 292 293 294 295 295 295 297 298 300
309 309 310 311 312 312 312 311 309 307 304 303 302 301 299 299 299 299 299 298 298 298 298 297 297 297 297 297 298 298 299 302 304 305 304 303 302 303 303 303 303 303 302 302 301 301 301 300 300 300 302 304 305 305 305 305 305 304 303 302 301 299 299 300 298 298 300 301 301 301 301 300 299 297 294 292 292 293 294 295 295 296 297 298 300
308 309 309 310 310 310 311 310 310 308 305 303 302 301 300 299 299 299 298 297 298 297 297 297 297 297 297 297 297 297 297 299 302 305 304 303 303 302 302 302 302 301 301 301 301 301 300 299 299 298 299 301 303 304 304 305 304 303 302 302 300 298 299 300 298 298 299 300 301 301 301 300 299 297 294 292 292 293 293 295 296 296 296 297 299
307 310 310 310 311 310 310 310 310 308 305 303 302 302 301 300 300 300 298 297 297 297 297 297 296 296 297 296 296 296 296 297 299 302 304 303 302 302 302 303 302 302 301 301 301 301 300 299 297 296 296 298 301 303 304 304 304 303 302 301 299 297 299 299 298 298 299 300 300 301 300 299 298 297 295 293 292 293 293 294 296 296 296 297 298
306 310 309 309 311 311 310 310 309 306 303 303 302 302 302 302 301 300 298 296 296 296 296 296 296 296 296 296 296 296 295 295 296 298 300 302 302 302 302 302 302 301 300 300 299 299 299 298 296 294 294 295 298 301 302 303 303 303 302 299 296 296 299 300 298 298 299 299 300 300 299 299 298 297 296 294 293 292 292 294 295 296 296 296 297
307 310 309 307 308 308 309 308 305 302 301 302 302 302 302 302 301 300 299 297 295 296 296 296 296 296 296 296 295 295 295 295 295 295 296 298 299 299 299 300 299 298 297 296 296 296 296 296 295 294 294 294 295 298 300 301 302 302 302 298 295 296 299 300 299 298 298 299 300 300 299 298 297 297 296 295 293 293 292 293 295 296 296 296 296
306 309 309 307 306 306 307 305 302 299 299 300 301 301 302 302 301 300 300 298 296 296 295 295 296 296 295 295 295 295 294 294 294 294 295 295 295 295 295 296 295 295 295 295 294 294 294 294 294 293 293 294 294 295 297 299 300 301 301 298 295 296 298 299 299 298 298 299 299 299 299 298 297 297 296 295 293 293 292 292 294 296 297 296 296
304 306 307 305 305 305 305 304 300 298 298 299 300 301 301 302 302 300 299 298 298 296 295 295 295 295 295 295 295 295 294 294 294 294 294 294 294 294 294 295 294 294 294 294 294 294 293 293 293 293 293 293 293 294 296 298 299 300 300 298 296 296 296 296 297 298 298 299 299 299 299 298 297 296 297 295 293 292 292 291 293 296 297 297 297
302 304 304 304 304 304 305 304 301 298 298 298 299 300 301 302 302 300 299 299 299 298 296 295 295 295 295 294 295 295 294 294 294 294 294 294 294 294 294 294 294 294 294 293 293 293 293 293 293 293 293 293 294 295 296 298 299 299 299 299 298 297 296 295 295 296 297 298 299 299 298 297 296 296 296 295 293 292 292 291 292 295 297 297 297
300 302 302 303 303 302 304 304 301 298 298 298 298 299 300 301 301 300 299 299 299 299 298 297 296 295 295 294 295 294 294 294 294 294 294 294 294 294 294 294 294 293 293 293 292 292 292 292 292 292 292 293 295 297 298 299 299 299 300 301 299 298 298 295 293 294 296 297 298 299 298 297 296 296 296 295 293 292 291 291 293 295 297 297 298
301 302 302 302 302 302 303 303 300 299 299 298 298 297 298 299 300 300 300 300 300 299 298 297 296 296 296 295 294 294 294 294 294 294 294 294 294 294 294 293 293 293 292 292 292 292 292 292 292 292 292 292 294 296 298 299 299 299 300 301 300 299 299 296 293 293 295 296 298 299 297 297 296 296 296 295 293 292 291 292 293 295 296 297 297
301 301 301 302 302 302 302 302 300 299 298 298 298 297 297 298 299 299 300 300 299 298 297 296 296 296 296 295 294 294 294 293 294 294 294 294 294 294 293 293 292 292 292 292 292 292 292 292 291 292 292 292 292 293 296 297 298 298 299 301 301 300 299 296 293 293 295 297 298 299 297 297 297 296 296 295 292 292 292 292 294 296 296 296 297
301 301 301 301 302 301 301 301 300 299 299 298 298 298 297 297 297 298 298 298 298 297 296 295 295 295 295 295 294 293 294 293 293 294 294 294 295 294 293 292 292 292 292 293 293 293 293 292 292 291 291 292 292 292 292 294 296 298 298 299 299 299 298 295 292 292 295 297 298 299 298 297 297 296 296 295 293 292 292 292 294 296 296 296 296
303 301 301 301 302 302 301 301 301 300 299 299 298 298 297 297 296 296 296 297 297 297 296 295 295 295 295 294 294 293 293 293 293 293 293 294 295 295 294 293 293 293 293 293 293 294 293 293 293 292 291 291 292 291 291 292 295 297 297 298 298 298 298 296 293 292 294 296 298 299 298 297 297 296 296 295 293 292 292 292 294 296 296 295 296
Wind_Speed
2 2 1 1 2 3 3 4 4 4 5 5 3 2 2 3 3 5 6 6 5 4 4 4 4 5 6 5 5 5 6 7 8 10 11 12 13 13 12 11 11 10 10 9 8 8 9 9 9 8 8 8 7 7 6 6 7 7 6 6 6 6 8 8 7 7 6 6 7 7 7 7 8 8 9 9 9 9 10 10 10 11 11 12 13
4 5 3 2 1 1 1 3 4 5 6 6 5 4 2 2 2 4 5 6 7 7 7 6 5 7 7 6 6 7 7 8 10 12 12 13 15 15 14 13 11 11 11 10 9 8 7 8 9 9 9 9 9 8 8 7 7 6 5 5 5 6 7 7 7 6 6 6 6 7 7 7 7 8 9 9 10 10 11 11 11 11 12 12 13
6 6 6 4 2 2 3 2 3 4 5 6 7 5 2 2 2 4 5 6 7 8 9 9 7 7 7 7 7 8 8 9 11 13 13 14 15 16 15 14 12 11 11 11 11 9 8 8 8 9 9 9 10 10 10 10 8 7 7 7 7 7 7 7 7 7 6 7 7 7 7 7 8 8 9 9 10 11 11 11 11 12 12 13 13
8 7 7 6 3 3 4 4 5 4 4 6 7 6 4 3 3 5 6 7 8 8 9 10 9 7 7 9 9 9 10 10 11 12 13 13 14 15 15 15 14 12 12 12 12 11 11 10 9 9 9 9 10 10 10 11 10 9 9 8 8 8 8 8 8 7 7 8 8 8 8 8 8 9 10 10 11 11 12 12 12 12 13 13 14
10 9 9 8 6 6 7 7 6 5 4 5 6 7 7 5 5 6 6 8 8 8 9 9 8 6 7 9 9 9 10 10 10 10 11 12 12 13 14 14 13 12 12 13 13 13 13 12 12 10 10 9 9 10 11 11 11 11 11 11 10 9 9 9 9 9 9 9 9 9 10 10 10 11 11 12 12 13 13 13 13 14 14 14 14
12 12 13 11 10 10 10 9 8 7 6 6 6 7 8 7 7 7 7 7 7 8 8 7 6 6 7 7 8 9 9 9 9 9 10 11 11 12 12 13 12 11 12 12 12 13 13 14 14 12 12 11 11 12 12 13 13 13 14 14 13 11 11 11 11 11 11 10 10 11 11 12 12 13 13 13 13 14 14 15 15 15 15 15 16
13 14 15 14 13 13 14 12 11 9 8 8 8 9 9 9 9 10 10 9 8 8 9 8 7 7 7 8 9 10 9 9 9 8 9 10 11 11 11 11 11 11 11 11 12 13 13 15 15 14 14 13 13 14 14 14 15 15 16 16 15 14 12 12 12 12 12 12 12 12 13 13 13 14 14 14 14 14 15 16 16 16 17 17 17
15 15 14 14 14 14 16 15 13 11 10 9 9 10 10 10 11 12 12 12 11 10 10 11 10 8 8 8 8 8 8 8 9 9 10 10 10 10 10 11 11 11 11 12 13 13 13 14 15 15 15 14 14 15 16 16 17 17 18 18 17 15 14 13 13 13 13 13 12 12 13 14 14 14 15 14 14 15 15 16 17 17 17 18 18
12 11 9 9 10 13 16 17 15 13 12 10 10 10 10 10 10 10 11 11 11 12 12 12 11 10 9 9 8 9 9 9 9 10 11 11 10 10 10 11 12 12 12 12 13 13 14 14 14 14 15 15 15 15 15 16 18 19 19 20 19 17 16 15 14 14 13 13 12 13 14 14 15 15 15 16 16 15 16 17 17 18 18 18 18
6 4 3 4 7 10 14 16 16 15 13 12 12 11 10 10 9 9 10 10 10 10 11 11 11 11 10 10 11 10 10 10 9 9 11 11 12 11 10 12 13 12 11 12 13 13 14 14 13 14 14 14 14 13 15 16 18 19 19 21 20 19 19 18 17 16 14 13 13 13 14 15 15 16 16 16 16 16 17 17 17 18 18 19 19
2 2 3 5 4 6 10 14 16 16 15 14 13 13 12 11 10 10 11 10 9 9 10 10 10 10 10 10 9 9 8 9 9 8 9 11 12 13 13 13 13 11 11 12 13 13 13 12 12 12 12 12 12 12 14 15 15 16 18 20 21 21 20 19 19 19 17 16 15 14 15 16 16 15 16 17 16 17 17 17 17 18 18 19 19
3 3 5 6 6 5 5 7 10 13 14 14 13 13 12 12 12 12 12 10 9 10 10 9 9 9 9 8 7 6 6 8 9 8 9 11 13 13 12 11 10 11 12 11 10 11 11 10 9 9 9 7 7 8 10 11 13 15 16 17 20 22 22 20 20 20 19 18 17 17 16 17 16 16 16 17 16 17 17 17 18 18 19 19 19
3 3 5 7 7 6 4 4 5 6 8 9 9 10 10 10 11 11 11 9 9 9 9 9 9 9 7 6 4 2 2 4 4 5 7 10 11 11 11 8 7 7 8 7 7 8 8 7 7 8 7 5 5 7 9 11 13 15 15 15 16 19 20 20 21 21 20 19 18 18 18 17 16 16 16 17 16 17 17 18 18 18 18 19 19
4 4 4 6 6 5 3 3 3 3 4 4 5 6 7 8 8 9 8 6 6 6 7 8 9 8 6 4 2 5 5 6 3 4 5 6 7 7 6 5 3 3 4 4 5 5 6 6 6 6 5 5 6 7 9 11 12 14 15 15 14 15 18 19 19 20 20 20 19 19 20 18 16 15 16 17 17 18 18 17 18 17 17 18 18
3 3 4 5 5 4 4 4 3 2 2 3 4 5 6 6 7 7 7 6 5 5 7 7 8 8 6 3 3 7 7 7 7 8 9 8 7 7 6 6 4 4 6 6 7 7 6 6 6 5 5 5 6 7 8 10 11 12 13 14 14 14 16 16 16 17 18 19 19 18 17 16 14 14 15 16 16 17 18 18 19 18 17 18 19
1 2 3 3 4 4 4 4 4 3 2 3 4 5 6 7 7 7 7 8 8 7 7 7 8 7 5 4 4 7 7 5 10 10 8 7 8 9 9 9 8 6 6 7 7 7 7 6 6 5 5 4 5 6 6 7 9 10 9 10 11 12 14 14 14 14 15 17 17 16 15 14 13 13 14 15 16 17 18 18 18 17 17 17 18
2 2 3 4 4 5 5 5 4 4 4 3 3 4 6 7 7 8 8 9 9 7 6 6 7 7 6 6 5 6 9 6 9 12 8 7 8 8 8 9 9 7 6 6 7 6 6 5 5 4 3 3 4 5 6 7 8 8 7 7 8 8 10 11 12 12 13 15 14 13 13 12 12 13 14 15 16 15 15 16 15 15 15 15 16
3 3 4 5 5 5 5 5 5 5 5 4 3 3 4 5 6 6 7 7 7 6 5 5 6 6 6 6 6 6 8 9 7 10 10 9 9 8 8 9 9 8 7 7 6 5 4 4 4 3 2 2 3 4 5 6 7 7 6 6 6 6 7 8 8 9 11 12 11 11 13 12 12 12 13 15 14 13 14 14 13 14 15 15 16
3 3 4 4 5 5 5 5 5 5 5 4 4 3 3 3 3 4 4 5 5 4 5 5 5 6 6 6 6 5 6 7 7 8 10 10 9 8 8 8 8 8 7 6 5 5 4 3 3 3 2 2 2 3 4 5 6 5 5 5 4 5 6 7 6 7 10 11 10 8 7 8 7 4 4 9 11 11 13 14 14 15 16 17 17
3 3 4 4 5 5 5 5 5 5 4 4 4 4 4 3 3 3 3 3 3 2 3 4 5 5 5 4 4 4 4 4 5 6 9 12 10 8 8 7 7 8 7 6 5 5 5 4 3 2 2 2 2 3 4 5 5 3 1 2 4 5 7 8 8 8 8 7 6 4 5 2 3 1 1 6 9 11 13 14 15 16 16 17 17
4 4 4 4 5 5 4 4 4 5 4 4 4 3 3 3 3 3 3 3 2 2 2 4 5 5 5 4 4 4 4 4 4 5 8 11 11 10 9 9 9 10 8 6 5 4 4 5 4 3 2 2 2 3 4 4 4 4 3 3 5 6 6 6 6 5 5 6 3 3 1 2 5 6 7 9 10 13 15 15 15 15 14 14 14
4 4 4 5 5 5 4 4 4 4 4 4 4 3 3 2 3 3 3 3 3 2 2 4 5 6 6 6 6 6 6 6 6 6 7 9 11 11 10 9 12 13 9 6 5 4 4 5 5 4 3 3 3 3 3 3 3 3 3 3 5 6 7 11 11 7 6 6 0 5 5 7 9 10 12 13 15 16 16 15 14 13 13 12 13
4 4 5 5 4 4 4 3 3 4 4 3 3 3 3 3 2 2 2 2 2 2 2 3 4 5 6 5 6 7 7 7 7 7 7 8 11 12 11 10 12 13 11 7 5 4 6 6 6 6 5 5 6 5 5 4 4 5 6 4 5 5 2 4 4 2 5 4 6 8 9 11 13 13 14 14 15 15 14 13 12 11 11 12 13
6 6 6 5 4 4 4 2 1 2 2 2 2 3 3 3 2 1 1 0 0 1 2 3 3 4 5 5 6 6 6 6 6 6 6 7 9 11 13 12 13 14 11 7 4 6 7 7 7 7 6 5 6 6 6 6 7 8 8 5 3 2 4 4 4 6 8 9 9 10 12 12 11 11 11 11 11 10 11 11 11 10 10 11 13
8 7 7 5 3 4 4 3 2 1 1 1 1 2 2 1 1 1 1 1 2 2 3 3 4 4 4 4 5 6 6 6 6 5 7 7 8 11 13 11 13 15 12 7 5 5 7 7 8 8 8 6 6 5 6 7 8 9 8 6 4 3 3 4 5 6 7 8 8 8 10 11 11 11 11 10 10 9 9 10 10 9 9 10 12
9 8 8 4 2 3 4 3 2 1 1 1 0 1 1 1 1 1 2 1 2 3 4 4 5 4 4 4 4 5 6 6 6 6 7 8 9 11 14 14 14 14 12 10 6 5 6 6 8 9 9 8 7 5 6 8 10 11 10 7 6 6 6 7 8 8 8 8 7 8 10 11 11 12 12 13 11 10 10 11 10 9 8 10 11
9 9 8 3 0 2 4 3 2 1 1 2 2 1 1 2 2 1 1 0 1 3 5 6 5 4 4 4 5 5 6 6 7 8 8 9 10 10 13 16 17 14 12 11 8 7 6 4 6 8 9 9 8 8 9 10 12 13 11 9 9 9 9 10 10 11 11 10 10 11 11 12 12 12 13 13 13 12 12 12 11 10 10 11 11
9 10 8 4 1 1 3 3 2 2 2 2 3 3 2 2 2 2 2 1 1 2 6 8 7 5 5 5 5 4 5 6 8 9 9 10 10 9 9 11 14 16 15 12 9 8 6 4 6 7 7 8 8 9 11 12 14 14 12 11 12 12 13 12 12 13 13 13 13 13 13 13 13 13 13 13 13 12 12 12 11 11 11 11 10
10 10 7 5 1 1 2 3 3 3 3 3 3 3 3 4 4 4 4 3 3 2 6 9 9 7 6 6 5 4 5 6 7 8 9 9 10 9 8 8 9 12 15 13 11 9 7 5 6 6 5 7 8 10 12 13 14 14 12 13 14 14 14 14 13 14 14 14 14 14 14 14 14 14 13 13 13 13 12 12 11 11 11 10 10
11 10 7 5 2 1 2 4 5 4 4 4 4 3 4 6 6 6 4 3 3 4 6 8 9 9 8 7 6 4 4 6 7 7 8 8 8 8 8 7 7 7 10 13 13 11 9 7 6 5 4 5 7 10 11 13 15 14 13 14 15 15 14 14 14 14 15 15 15 15 16 16 16 15 15 14 14 14 14 13 13 12 12 12 11
12 10 7 5 3 1 3 6 6 5 5 5 4 4 5 6 6 6 3 2 5 5 5 6 7 7 8 8 6 5 5 6 8 9 8 7 7 6 6 7 7 6 7 10 15 14 10 7 7 5 3 5 7 10 11 14 16 15 15 15 14 13 13 14 15 15 15 16 17 17 18 18 19 18 17 16 15 15 15 14 14 14 13 13 13
12 10 8 5 4 3 4 7 7 6 6 5 5 5 6 5 5 5 3 4 5 4 4 4 4 5 6 7 7 7 6 7 9 10 9 8 6 5 4 5 8 7 6 8 14 16 12 9 9 9 7 8 9 10 11 13 14 14 15 16 14 12 12 13 14 15 16 16 17 19 19 20 21 21 19 17 17 16 15 15 14 14 14 14 13
12 10 9 6 5 5 5 6 6 5 6 6 6 5 5 5 4 3 2 2 3 3 2 2 2 3 5 7 8 8 7 7 7 8 9 8 6 4 4 7 9 8 5 6 12 17 15 10 9 11 10 9 9 10 10 11 12 13 13 15 15 14 12 13 13 14 16 17 18 19 20 21 23 23 21 19 18 17 16 16 15 14 14 14 14
12 12 9 7 7 8 7 7 7 7 7 7 7 6 4 4 4 3 2 1 1 2 2 2 2 4 4 6 7 8 7 6 5 5 5 6 5 6 8 10 10 9 5 4 9 14 15 12 9 9 9 6 7 9 8 8 10 12 11 12 14 14 13 12 12 14 16 17 18 20 21 23 23 24 23 21 20 19 18 18 17 16 15 15 15
13 13 9 7 9 9 8 8 8 7 8 8 8 6 4 3 3 3 3 3 2 2 2 3 4 4 4 5 7 8 7 6 4 4 5 5 6 9 11 11 10 9 6 3 4 9 12 13 10 8 8 6 6 7 6 5 8 9 9 10 12 13 13 11 12 13 15 17 18 20 22 24 25 26 25 23 21 20 19 19 19 18 18 17 17
13 12 9 8 11 10 9 8 8 8 8 8 8 7 5 3 2 2 2 3 3 3 4 4 5 5 5 5 7 8 7 6 4 4 5 7 9 12 13 12 10 9 8 5 4 5 9 12 11 8 7 7 7 7 6 5 5 6 7 8 9 11 11 10 11 12 14 16 18 19 22 24 25 27 26 23 22 21 20 20 20 20 20 19 18
12 11 9 11 12 11 9 8 8 9 8 7 7 7 6 4 2 0 1 2 3 4 5 5 5 5 5 6 7 8 7 6 5 4 5 7 10 13 13 12 10 9 8 7 5 5 7 9 11 10 8 7 8 8 7 4 3 3 5 6 7 9 9 8 10 11 13 14 16 17 20 22 24 27 26 23 22 22 21 22 22 22 21 20 19
12 11 11 12 11 10 10 9 9 8 6 5 5 5 5 3 1 1 2 3 5 5 6 7 7 6 6 7 8 8 8 7 7 6 5 6 8 11 12 11 10 9 8 7 6 6 6 8 10 11 9 8 8 9 8 6 4 3 5 5 6 8 7 7 8 10 11 13 14 15 18 20 23 26 25 22 21 22 22 22 23 23 23 21 20
12 14 13 11 10 10 11 10 8 7 5 4 4 4 4 2 1 2 3 4 5 6 7 7 7 7 7 7 7 8 8 8 9 8 6 6 6 8 9 8 7 7 6 6 5 5 5 6 8 10 10 9 9 9 9 8 7 4 4 4 5 6 5 5 7 8 9 11 12 14 16 19 22 24 24 21 20 21 21 22 23 23 23 22 21
14 15 14 12 11 11 11 10 8 7 7 6 4 3 3 2 1 3 4 4 4 5 6 7 6 6 6 6 6 7 7 8 10 9 8 7 6 6 6 5 4 2 2 3 2 2 2 3 6 9 10 11 10 10 9 9 8 6 3 3 4 4 4 6 6 7 8 10 11 13 15 17 19 21 23 21 20 20 19 20 22 23 24 23 22
16 16 13 12 11 11 12 11 10 9 8 7 5 3 2 1 1 3 4 5 4 4 5 5 5 5 5 5 6 7 7 8 9 10 9 8 6 6 6 4 2 0 0 1 1 1 0 1 4 7 9 11 12 12 11 9 8 5 3 2 3 4 6 7 6 7 8 9 11 12 14 15 17 19 22 23 21 19 18 18 20 22 24 24 23
16 16 13 12 12 13 13 12 11 10 9 8 7 5 3 2 1 1 4 5 5 4 3 3 4 4 4 5 6 7 7 8 8 8 9 9 7 7 6 5 3 2 2 2 2 2 2 1 3 6 7 9 11 12 12 10 7 5 4 3 3 5 8 8 7 8 9 9 9 11 13 14 15 17 21 23 21 19 18 17 18 20 22 24 24
14 15 14 13 13 12 12 12 11 10 9 9 8 6 5 4 3 1 3 4 5 4 3 2 2 3 4 5 6 7 7 7 8 8 8 8 7 6 6 5 4 2 2 1 1 1 1 1 4 5 6 7 9 11 11 10 8 7 6 5 6 7 9 9 8 8 8 7 7 8 12 13 13 16 20 22 20 18 17 16 16 18 21 22 24
15 15 14 14 12 10 9 9 10 9 9 9 9 8 7 6 4 3 2 4 5 4 3 3 2 3 4 5 5 6 6 6 7 7 7 7 6 5 4 3 2 1 1 1 2 3 3 3 4 6 6 7 8 10 10 10 9 8 7 8 9 9 9 9 10 9 7 7 5 6 9 11 12 15 18 20 19 17 16 15 14 16 19 21 22
17 16 15 14 13 10 8 8 8 8 9 9 10 9 8 7 6 4 3 3 4 5 5 4 2 3 4 4 4 3 4 5 5 5 5 5 5 5 4 3 3 3 3 4 4 5 5 4 3 5 6 6 8 9 9 9 9 8 8 9 9 9 9 8 9 9 8 7 5 5 9 10 11 14 17 18 16 15 15 15 14 15 17 18 20
19 17 16 15 13 12 9 8 9 9 9 9 10 10 10 9 7 6 4 3 2 4 5 4 3 2 3 3 2 2 3 4 4 3 3 4 4 4 4 4 4 5 5 6 6 7 7 6 4 4 6 7 7 9 10 10 9 7 7 7 6 6 7 7 7 8 8 8 7 7 10 11 10 12 14 16 14 14 15 15 13 13 15 16 17
19 18 17 16 14 12 11 10 10 10 9 9 10 10 11 10 9 7 6 5 4 2 2 3 3 2 2 3 2 2 2 3 3 3 2 2 3 4 4 5 6 6 7 8 8 9 8 8 7 7 8 8 9 10 11 10 8 5 5 6 5 3 4 5 6 6 8 10 10 8 11 12 9 10 13 13 12 12 15 15 12 12 13 14 14
18 19 18 17 15 13 11 11 11 11 10 10 10 11 11 11 10 9 8 7 7 5 3 3 2 2 2 3 2 2 2 2 2 2 2 2 3 4 4 5 6 7 8 9 9 10 9 9 8 8 8 8 8 10 10 9 8 6 5 6 4 1 2 3 3 5 9 12 12 10 11 12 8 8 10 10 10 12 15 14 12 10 12 13 13
19 19 19 18 16 13 12 12 12 12 11 11 11 11 12 12 11 11 10 9 9 8 5 4 3 2 2 2 2 1 2 2 2 2 2 1 2 3 4 5 6 7 9 10 10 10 10 10 9 8 8 7 7 8 9 8 7 5 4 5 3 1 1 1 2 6 10 13 14 11 11 11 8 6 6 7 9 12 14 14 11 10 10 12 12
20 20 19 18 17 15 12 12 13 12 12 12 11 11 12 12 12 12 11 11 10 9 7 5 4 4 4 3 3 3 2 1 2 2 2 1 3 4 4 4 6 7 8 9 9 9 9 9 9 9 8 7 7 7 7 7 7 6 5 4 4 2 1 2 2 7 10 14 15 13 11 11 7 4 3 4 7 11 14 13 11 9 10 11 11
19 20 21 19 18 16 13 12 13 13 13 13 12 12 12 12 13 12 12 11 10 8 7 6 6 6 6 6 5 4 3 2 1 1 1 2 4 5 4 4 5 6 7 7 8 8 7 8 9 9 8 8 8 7 6 6 7 8 8 7 6 4 3 3 1 5 8 11 13 12 11 10 8 5 1 2 4 9 12 12 11 11 10 10 11
Wind_Direction
254 263 265 68 70 54 36 24 20 13 1 353 320 282 265 247 246 253 262 267 274 278 283 290 285 291 290 274 267 276 287 294 301 299 299 302 301 303 304 303 302 307 317 323 327 331 333 332 329 327 323 320 320 318 309 295 280 275 282 289 281 268 270 278 283 286 292 298 303 305 308 311 314 318 321 324 325 326 326 326 326 325 323 323 323
260 262 259 258 283 341 0 3 358 354 349 342 332 317 294 304 310 300 303 300 299 301 302 302 296 291 284 276 275 290 307 312 309 303 299 298 298 299 298 299 298 296 302 308 309 311 318 322 323 324 322 323 323 321 319 312 302 295 291 290 291 285 280 286 292 297 303 304 304 304 306 309 313 318 321 323 324 325 326 327 327 326 326 326 324
267 262 261 256 269 288 289 300 314 327 332 326 326 328 324 328 329 319 315 310 305 309 315 310 304 297 282 280 284 290 304 308 305 302 300 298 295 294 294 295 296 292 292 298 298 299 304 306 309 314 317 320 321 321 320 319 318 312 304 300 297 294 289 287 289 293 296 295 296 297 299 302 307 312 315 318 319 320 321 322 322 321 321 321 321
264 257 256 253 257 277 279 278 277 283 303 315 317 314 305 291 299 305 303 302 297 297 306 306 303 301 290 290 294 298 302 300 298 299 302 301 295 291 291 292 293 292 291 292 291 291 295 298 298 299 303 309 313 316 316 316 317 313 306 300 295 290 287 284 282 281 282 284 288 290 293 297 302 306 310 311 312 314 315 316 315 314 314 315 316
264 266 266 263 254 247 256 266 271 271 273 288 299 298 288 273 279 293 299 305 305 297 296 302 300 297 299 296 300 309 309 300 297 300 304 304 298 291 289 289 291 294 294 292 291 288 288 292 294 293 294 298 303 310 313 314 313 308 302 296 292 286 280 278 276 277 276 277 281 284 289 292 296 300 302 304 305 307 309 309 309 309 310 311 312
268 273 273 270 258 247 250 256 260 260 252 257 271 279 272 261 264 277 288 295 307 307 298 306 303 291 298 294 297 309 307 303 301 303 304 300 296 291 290 291 291 294 297 296 291 287 286 286 286 289 292 292 293 296 297 297 296 293 291 288 288 286 282 277 271 271 271 271 276 281 286 289 292 295 296 296 298 301 302 304 304 305 306 307 308
272 276 274 270 262 251 247 247 249 250 244 245 254 262 262 259 261 268 273 269 275 294 298 307 314 308 308 298 293 296 293 294 295 299 304 298 292 290 291 292 293 298 301 298 290 284 282 280 280 281 282 284 283 280 278 279 279 278 278 278 281 284 285 279 271 268 267 268 272 278 282 285 289 292 291 291 293 296 298 300 300 300 300 300 301
281 284 279 271 262 248 240 239 239 241 237 235 243 254 258 259 263 264 266 264 262 272 283 293 303 306 305 295 286 282 278 277 279 284 289 288 288 291 295 296 297 298 295 291 287 285 285 286 285 279 276 280 283 281 280 280 280 279 279 278 276 275 276 274 268 265 266 269 274 280 283 284 287 290 290 291 293 296 297 297 297 296 296 295 295
285 283 277 269 259 242 235 234 234 235 234 237 247 258 262 257 257 261 266 270 269 270 272 276 285 289 289 290 289 287 280 274 274 278 283 287 288 291 300 299 291 287 288 291 293 293 293 295 293 285 281 283 286 286 285 280 277 276 275 276 274 273 273 270 266 264 265 270 277 284 284 284 287 289 291 293 296 297 296 296 296 297 297 297 297
275 274 281 282 262 241 233 232 234 236 236 242 252 262 268 259 253 259 265 272 277 275 270 268 274 281 285 294 303 303 292 285 286 284 289 296 292 285 282 280 281 287 292 293 296 298 298 298 296 291 289 287 288 290 289 285 281 278 275 273 270 270 271 271 269 267 266 267 272 279 282 282 283 286 291 294 296 296 296 298 299 300 300 299 299
297 347 349 332 311 266 245 238 238 239 242 247 254 260 264 259 253 256 259 267 276 277 275 270 272 279 286 294 305 308 299 293 293 290 293 292 286 283 279 278 286 295 292 289 295 299 299 305 307 302 296 291 293 297 294 291 288 284 283 279 273 269 269 270 270 270 270 271 272 273 275 279 280 285 291 293 293 294 296 297 297 298 298 297 297
357 351 343 349 353 335 294 265 253 248 247 248 251 252 252 251 252 256 259 265 270 271 272 269 270 277 285 293 293 297 306 299 287 281 280 281 284 289 291 291 294 294 291 295 304 305 304 310 321 323 314 301 296 295 291 290 289 282 278 278 273 268 267 269 269 271 271 271 274 275 275 279 283 287 291 292 292 293 295 296 296 297 297 296 295
340 319 318 332 341 344 342 322 301 281 265 256 252 251 249 249 251 258 263 266 265 262 259 259 267 271 276 290 275 246 359 342 293 286 285 289 300 304 305 304 300 303 302 305 317 322 322 317 321 327 323 310 290 284 286 290 294 286 273 266 262 261 263 266 267 269 269 268 269 273 275 277 281 287 288 288 291 294 296 296 298 298 297 295 294
327 317 313 320 329 341 348 332 320 318 303 285 273 267 262 256 256 261 266 265 259 255 250 251 261 261 256 265 198 157 106 69 49 24 8 347 337 324 324 327 320 3 13 15 12 6 358 342 342 339 324 316 305 301 298 295 295 289 279 269 258 251 254 261 265 266 268 268 265 267 273 279 282 283 284 285 289 292 295 296 296 296 294 293 293
317 326 327 325 331 341 347 344 334 318 299 284 277 271 264 259 257 259 263 264 264 262 256 254 256 255 250 244 180 165 136 80 50 33 27 29 35 31 34 38 37 38 36 41 39 35 27 13 12 6 348 336 322 312 304 301 299 290 284 278 267 253 250 256 261 265 270 269 267 269 278 287 288 284 283 286 289 291 292 292 290 290 290 290 291
329 340 347 341 341 342 344 345 346 341 323 295 270 261 259 260 258 255 260 265 271 270 256 252 254 254 249 226 189 184 176 103 62 47 26 28 45 44 48 52 50 48 41 42 42 38 29 20 21 18 7 354 328 313 305 306 304 296 290 287 281 268 260 259 261 267 271 270 275 283 288 292 291 288 290 290 290 290 290 290 289 290 290 290 294
19 359 352 352 349 352 352 347 346 343 337 328 295 270 262 262 263 263 266 267 271 268 247 241 244 246 241 222 199 191 194 165 89 69 45 31 42 40 50 58 57 60 54 45 38 29 20 13 17 26 21 355 325 318 315 312 311 311 310 304 303 290 274 268 268 275 278 277 285 293 296 296 293 292 294 290 289 290 289 290 293 295 294 293 295
7 353 343 350 352 355 357 352 350 342 338 338 329 307 281 270 270 272 276 273 270 266 250 241 238 237 234 227 220 200 188 181 136 98 75 54 55 60 63 63 64 65 60 55 50 40 32 20 11 9 10 344 316 313 313 312 318 335 344 334 329 317 296 286 286 290 289 292 300 301 298 298 297 301 299 291 288 288 287 289 294 297 298 297 297
350 354 342 342 346 352 352 351 354 351 347 340 325 310 296 288 281 277 279 276 270 268 256 245 239 237 235 230 228 215 192 186 172 141 112 86 75 77 75 72 73 69 63 67 74 73 66 56 40 18 355 328 309 306 305 306 315 340 11 5 347 336 321 316 321 314 305 311 319 317 312 304 305 331 316 291 285 285 287 290 293 296 300 301 301
328 340 337 332 337 345 349 352 354 354 350 338 320 308 306 307 304 293 282 273 264 257 241 227 226 229 231 236 238 238 226 201 194 180 147 124 110 100 94 92 90 86 85 89 84 74 73 69 59 51 23 333 315 310 306 310 314 317 355 353 336 335 325 324 334 329 323 335 351 23 72 29 321 157 232 289 288 289 290 291 294 299 303 305 306
307 313 313 315 325 333 342 349 352 355 353 346 335 323 316 306 296 289 275 264 252 234 210 199 203 206 209 221 229 232 230 212 207 203 168 146 139 132 124 121 111 104 106 108 96 78 77 70 49 40 30 350 332 326 317 313 313 299 278 307 342 353 359 25 37 22 46 90 72 21 67 300 290 260 273 297 300 297 295 297 303 308 311 314 318
287 293 296 299 310 319 328 341 352 4 7 5 5 357 340 320 301 290 276 264 249 237 215 189 188 193 196 204 212 214 215 212 209 205 186 161 149 144 146 146 129 120 119 110 96 83 71 60 53 55 55 48 44 30 5 338 327 338 341 356 33 49 53 70 81 65 65 103 171 313 296 291 299 292 294 302 302 303 306 312 318 322 326 331 333
271 275 283 286 295 306 310 325 355 12 16 13 17 17 14 13 359 338 313 286 254 238 214 179 176 185 188 188 197 204 210 209 206 204 194 170 155 147 147 151 139 129 125 111 88 75 67 56 60 72 75 72 69 64 53 40 42 47 39 41 87 110 76 62 89 25 358 336 302 309 308 310 314 309 306 306 307 312 317 322 326 328 334 340 340
281 276 272 274 287 293 281 269 307 7 7 5 12 20 21 18 9 358 356 345 220 218 212 181 170 178 178 174 179 185 191 189 182 182 174 167 167 152 144 146 136 125 122 117 94 73 66 51 51 61 67 70 68 66 63 57 56 53 46 47 83 154 244 268 267 289 308 308 309 319 323 327 329 323 319 319 322 330 331 331 330 328 335 341 343
280 273 262 267 292 284 255 233 222 259 331 346 9 27 24 12 327 271 231 162 149 180 200 188 178 180 173 166 168 169 171 166 160 163 156 157 167 153 147 151 139 128 125 120 105 81 63 43 39 47 51 58 65 67 60 53 51 44 36 34 27 3 327 323 329 332 334 333 331 338 340 344 350 351 348 342 340 344 345 341 335 332 335 338 342
274 262 253 261 308 270 228 207 213 234 274 281 317 35 23 11 341 273 255 209 173 187 191 187 181 178 164 156 158 155 155 157 162 170 160 161 176 166 152 144 135 133 130 122 113 92 72 44 36 44 46 47 46 46 45 42 44 39 31 30 29 24 17 13 14 15 18 16 9 4 3 4 6 5 4 1 358 356 354 352 349 347 344 337 336
263 245 240 231 19 265 222 202 204 171 230 272 295 318 340 354 356 320 292 320 134 187 190 188 182 176 169 168 168 151 139 150 167 175 171 169 176 178 167 151 138 133 126 120 116 101 87 62 50 44 39 41 32 23 31 35 36 36 36 39 41 40 35 33 32 31 31 31 28 24 22 21 17 14 13 13 11 7 3 3 3 2 354 346 344
248 226 224 201 123 296 236 216 205 183 210 252 279 294 318 337 334 322 307 320 355 193 187 189 187 184 186 187 185 163 142 153 169 170 170 170 167 169 184 180 158 140 125 114 113 115 116 111 86 56 27 30 31 23 25 30 34 37 41 44 44 44 43 41 41 40 39 37 36 34 32 30 27 23 21 19 17 14 11 8 7 6 1 358 358
223 210 214 200 157 334 259 223 205 198 212 221 247 280 300 307 304 300 296 292 285 230 185 188 189 187 190 190 187 174 155 162 173 169 167 170 167 161 177 202 192 162 140 125 120 127 132 124 110 87 40 26 31 30 25 30 39 42 42 44 45 46 47 46 47 47 44 41 40 39 37 35 32 30 27 24 22 20 18 16 12 10 7 5 5
203 206 211 200 193 326 242 212 206 209 221 225 236 266 292 300 297 296 300 285 248 217 182 180 185 188 192 192 194 194 182 182 186 180 176 179 180 173 172 184 204 206 176 148 131 126 130 122 110 98 68 40 34 36 36 44 50 49 46 48 50 49 47 49 50 50 49 46 42 40 39 37 34 32 29 27 24 21 21 20 17 16 14 13 13
196 207 207 205 215 218 216 219 219 225 234 243 255 274 294 297 295 292 282 196 205 205 181 171 174 186 194 191 195 201 198 200 197 191 188 192 192 185 177 174 185 211 204 161 134 125 129 124 110 98 83 70 53 46 52 59 59 55 51 52 53 48 44 47 49 50 49 46 43 41 39 39 36 33 30 28 26 23 22 21 20 20 19 20 20
195 204 200 209 220 207 223 230 226 228 239 255 272 290 296 285 277 276 244 174 189 204 193 176 158 174 191 186 184 187 188 196 199 199 203 208 210 205 189 172 172 178 188 166 138 128 128 125 116 110 104 96 78 62 60 62 60 55 51 50 49 45 41 42 45 47 47 44 42 40 38 38 37 34 32 31 30 27 26 24 24 25 25 26 27
196 199 195 205 223 222 229 234 231 239 254 270 283 297 293 263 244 252 239 155 171 191 192 188 145 150 178 181 179 182 190 198 196 200 213 220 219 206 181 166 163 166 181 173 144 134 134 136 129 120 116 112 97 80 69 63 60 52 47 45 43 41 42 40 39 45 46 41 40 39 37 37 35 33 32 32 33 33 32 31 31 33 33 34 35
201 205 204 208 224 229 228 231 237 250 266 280 289 295 276 240 227 227 226 196 182 175 163 180 160 144 162 179 180 182 193 205 197 185 196 211 197 163 159 165 161 158 172 179 151 143 143 146 148 141 136 133 115 101 86 68 60 52 45 42 38 38 43 42 39 45 47 41 38 37 35 33 31 30 30 31 33 34 35 36 37 39 41 41 42
204 213 220 210 210 220 224 227 232 245 266 279 282 280 263 234 228 220 216 222 218 194 181 183 171 153 153 171 178 181 192 205 198 166 155 162 156 145 150 161 159 151 155 171 157 154 152 150 154 160 157 152 136 119 103 76 66 57 48 43 38 35 41 45 44 47 50 44 38 36 33 30 28 28 29 30 32 33 36 38 40 41 43 44 46
208 219 222 196 194 211 222 224 232 247 265 271 264 264 268 265 246 225 213 214 204 191 184 181 174 163 157 162 166 172 190 205 193 160 146 146 147 146 149 154 157 152 153 159 160 166 165 158 155 159 163 162 152 135 120 98 79 65 54 49 42 36 38 47 49 51 52 46 41 37 33 30 28 27 27 30 32 33 35 37 40 43 44 46 48
213 215 197 185 194 213 223 231 249 263 268 260 246 250 263 271 277 323 129 162 161 156 158 158 158 156 155 154 152 157 179 200 188 160 145 148 153 154 153 153 156 156 158 166 171 175 177 169 159 154 154 161 163 158 150 141 119 78 59 50 40 37 41 49 54 57 57 51 46 41 34 30 30 27 27 31 33 34 35 36 39 43 46 47 48
211 198 181 188 204 218 230 245 264 279 281 257 247 252 258 268 307 34 96 122 131 132 134 134 133 132 137 141 138 142 161 181 181 167 152 150 158 163 164 163 165 167 169 171 173 175 179 176 166 160 157 156 163 172 172 169 164 109 70 48 30 32 41 51 57 62 64 60 54 46 36 32 30 28 28 33 37 37 37 37 37 39 43 47 48
204 192 186 197 208 218 237 256 272 290 296 277 271 272 260 263 356 76 110 119 124 126 125 123 123 124 127 132 133 136 150 167 173 171 163 159 160 162 164 167 172 178 180 174 170 175 180 175 171 170 169 163 163 172 178 181 182 157 98 62 39 41 54 67 67 63 64 68 66 54 41 35 31 27 28 35 40 41 40 39 38 38 40 45 49
199 198 197 203 213 223 239 256 271 286 289 281 282 286 268 252 106 110 124 126 126 130 128 121 118 121 125 131 136 138 144 157 167 170 167 165 167 161 155 159 167 177 181 176 180 192 176 167 174 178 179 177 172 166 167 175 181 174 142 88 65 72 98 101 84 68 66 73 75 66 50 40 34 28 28 35 41 43 44 43 41 40 39 42 48
195 205 212 212 221 231 237 250 266 275 273 265 266 272 269 259 121 122 135 137 132 131 133 125 120 121 127 134 137 136 137 145 161 171 169 166 170 166 157 163 188 264 311 283 288 281 324 118 157 168 174 181 183 176 170 175 183 181 156 115 83 105 129 121 91 72 76 82 81 74 60 46 37 30 30 33 36 41 46 47 46 44 42 42 46
196 209 224 223 228 235 241 252 261 261 254 248 250 252 252 260 267 144 151 154 147 137 129 123 122 122 127 130 126 126 131 137 148 163 168 170 176 173 169 180 212 257 281 297 311 310 319 41 136 149 159 173 183 188 189 193 199 191 159 137 118 134 149 142 105 80 83 89 87 80 68 54 41 33 33 34 32 36 44 50 52 50 47 46 46
210 215 228 232 234 237 241 249 249 244 239 236 240 245 242 245 258 235 168 168 163 151 137 126 126 125 122 121 118 120 125 130 136 144 153 161 168 172 176 187 203 226 260 296 349 9 5 112 137 145 162 173 178 187 194 197 198 192 173 152 135 141 164 163 130 100 89 92 96 87 76 62 46 37 37 35 31 33 41 49 57 58 53 50 49
225 223 231 236 239 238 236 237 237 233 230 229 234 239 237 235 248 258 210 186 178 171 172 170 152 127 116 112 112 117 123 126 128 132 136 139 141 145 149 153 154 136 86 72 77 83 85 101 132 148 163 175 175 179 186 190 196 199 185 162 140 133 153 165 149 128 109 106 115 103 85 72 54 43 41 37 31 32 39 44 55 63 59 54 52
229 229 234 237 243 246 237 232 233 229 226 226 229 235 234 232 242 253 242 205 184 180 189 196 177 134 119 116 110 110 118 119 116 119 127 129 126 124 121 117 111 98 88 84 85 90 88 83 109 141 147 157 166 170 173 180 192 197 182 165 147 125 127 144 150 148 138 132 139 123 101 85 62 50 45 39 32 33 38 41 51 65 65 58 54
230 232 236 240 246 249 243 236 233 229 226 225 226 229 233 234 237 244 252 251 210 178 184 198 198 157 136 136 126 114 117 111 100 99 109 116 115 110 108 108 100 92 91 90 89 91 95 96 107 126 130 138 151 155 156 163 177 185 171 162 154 129 115 111 124 147 155 155 159 141 115 99 73 56 50 41 33 33 41 44 51 64 68 62 56
231 234 238 241 247 251 248 240 232 229 230 228 225 225 229 232 233 233 244 259 256 228 195 201 208 182 171 182 165 122 114 104 92 90 93 97 98 92 89 91 91 91 95 98 98 99 103 108 112 117 123 134 148 152 152 156 162 165 164 167 169 150 108 83 95 132 150 157 167 156 125 110 87 65 58 45 33 36 47 51 53 61 66 64 57
230 232 236 240 245 250 250 241 230 228 231 231 229 226 225 228 230 231 239 251 254 252 242 219 205 172 171 192 181 132 113 105 99 104 109 100 90 83 82 88 93 100 103 103 104 105 105 105 106 109 116 129 149 160 164 168 166 162 173 186 197 185 80 62 91 125 138 151 163 161 135 122 106 80 68 49 34 42 53 60 60 56 60 62 58
230 230 235 240 244 248 250 241 229 228 232 232 232 230 226 225 227 231 239 248 250 249 246 234 216 188 176 196 202 175 125 111 108 122 141 132 93 91 95 100 107 112 111 107 106 104 101 100 97 98 105 116 138 160 175 187 186 171 171 196 223 242 45 18 128 134 139 148 156 157 143 132 123 105 83 53 38 47 58 69 73 60 52 58 59
234 233 237 240 244 247 247 240 230 227 232 235 234 233 230 225 225 231 240 246 246 246 241 232 220 206 198 202 206 205 182 127 107 119 133 115 102 105 104 106 116 121 118 112 109 104 100 99 95 92 96 103 114 130 151 179 192 184 182 217 248 259 346 352 102 130 142 151 157 162 156 144 144 146 100 51 41 51 60 76 89 74 50 49 53
239 236 237 240 244 247 245 239 232 227 228 233 236 236 234 229 227 231 237 239 236 235 230 221 213 205 199 199 204 205 200 191 124 106 105 91 100 108 109 108 121 131 127 121 116 107 99 96 93 88 84 87 94 99 108 143 178 190 203 226 247 264 287 300 107 127 143 156 164 173 173 164 166 181 217 349 33 56 64 81 101 93 60 41 40